sat.trackr.live / text

‹ back to catalog

STARLINK-5657

NORAD 55342 · 2023-013M

PAYLOAD ACTIVE UNKNOWN

§ Identity

Operator
Country
US
Launch date
2023-01-26
Launch site
AFETR
Launch vehicle
Mass (kg)
RCS (m²)

Purposes: comms

External: N2YO · Heavens-Above · Gunter

§ Orbital elements

Epoch: 2026-05-24T23:02:09.629088Z

Period
94.27 min
Inclination
43.0040°
Eccentricity
0.0001986
Mean motion
15.27591990 rev/d
Perigee alt
481.7 km
Apogee alt
484.4 km
Semi-major
6,861.2 km
B*
7.2264e-5
RAAN
233.0444°
Arg perigee
270.1932°
Mean anomaly
89.8692°
Rev number
18,333

§ Raw data

STARLINK-56571 55342U 23013M   26144.95983367  .00001727  00000+0  72264-4 0  99962 55342  43.0040 233.0444 0001986 270.1932  89.8692 15.27591990183338

JSON: /api/v1/satellites/55342 · /tle

For live sub-satellite position, see the globe view (requires WebGL).

§ Visibility from observer

Set your observer location to see the next 7 days of passes ≥ 10°. The values pass through the URL so the page stays shareable.

No JS? Fill the form by hand. The geolocation button needs JavaScript.